Weather in Ruem

Russia / Mari El Republic     56°37′59″N   47°45′28″E
temp.,
°C
wind,
m/s
gust,
m/s
humid.,
%
clouds,
%
prec.,
mm/h
press.,
hPa
HPBL,
m
26 july, mon
mon2600:00+13wsw115991 0.0 102110
03:00+13w2358100 0.0 102161
06:00+14w2662100 0.0 1021184
09:00+17w345673 0.0 1021358
12:00+23wnw4635100 0.0 10212608
15:00+23w4535100 0.0 10192765
18:00+21wsw48505 0.0 1019516
21:00+15wsw366644 0.0 1019101
27 july, tue
tue2700:00+16wsw386461 0.0 1018187
03:00+13w388020 0.0 1018146
06:00+16wnw3972100 0.0 1018273
09:00+18nw366682 0.0 1018731
12:00+22nw58412 0.5 10172124
15:00+23nw59335 0.5 10172647
18:00+21nnw48425 0.0 1016927
21:00+13nnw22620 0.0 101826
28 july, wed
wed2800:00+11nnw22700 0.0 101815
03:00+10nw227622 0.0 101914
06:00+13wnw22655 0.0 1018112
09:00+20wnw23435 0.0 1017785
12:00+23w35375 0.0 10161990
15:00+24wsw46414 0.0 10141543
18:00+21ssw24669 0.1 1013236
21:00+15ssw258598 0.1 101287
29 july, thu
thu2900:00+15ssw2692100 0.0 1011108
03:00+15s2289100 0.0 100936
06:00+16wsw2890100 0.3 1008220
09:00+16s2498100 1.7 1007174
12:00+16se41098100 4.9 1004650
15:00+17wsw3899100 7.4 1003549
18:00+18wnw259572 0.3 1003384
21:00+16nne229853 0.3 100328
30 july, fri
fri3000:00+15n229844 0.0 100334
03:00+14nnw129818 0.0 100441
06:00+16w249698 0.0 1005157
09:00+21wsw3475100 0.0 1005532
12:00+26wsw585321 0.0 10051482
15:00+22w41083100 1.1 1005647
18:00+23w510725 0.1 10051046
21:00+18sw38955 0.8 1006147